Вернуться в каталог

STARLINK-31135

АктивенСвязьVLEO
NORAD 58771·PAYLOAD·🇺🇸 United States

Запущен Jan 14, 2024 с Vandenberg Space Force Base

Loading…

Ближайшие Пролёты (ближайшие 24 часа)

TLE

СвежийSource: CelesTrak SupGP

Эпоха: Sep 15, 2026, 02:22 UTC

1 58771C 24011G   26258.09909722 -.00091132  00000+0 -26923-2 0  2586
2 58771  53.1582 210.6160 0001321  88.5251   1.8502 15.34439246    14

Отслеживайте STARLINK-31135 в реальном времени с AllMySat

Download on the App Store